COSMOS 2534 [GLONASS-M] 1 44299U 19030A 21112.51045743 .00000016 00000-0 00000-0 0 9994 2 44299 64.5336 256.4122 0011179 295.2055 243.9651 2.13102003 14834 FREGAT R/B 1 44300U 19030B 21112.40962724 .00000018 00000-0 00000-0 0 9994 2 44300 64.4914 257.3051 0085466 133.6555 227.0344 2.09028861 14554